Erie, PA

11:14 AM EST on January 19, 2018 (GMT -0500)
Erie International

Weather History for KERI - February, 2012

Change the Weather History Date:

Wednesday, February 29, 2012

  Actual Average Record
Temperature  
Mean Temperature 43 °F 31 °F  
Max Temperature 52 °F 38 °F 61 °F (1976)
Min Temperature 34 °F 23 °F -7 °F (1884)
Degree Days  
Heating Degree Days 22 34  
Month to date heating degree days 890 1062  
Since 1 July heating degree days 3698 4399  
Cooling Degree Days 0 0  
Month to date cooling degree days 0 0  
Year to date cooling degree days 0 0  
Moisture  
Dew Point 38 °F    
Average Humidity 69    
Maximum Humidity 93    
Minimum Humidity 44    
Precipitation  
Precipitation 0.39 in 0.10 in 1.15 in (1976)
Month to date precipitation 1.78 2.39  
Year to date precipitation 6.29 5.34  
Snow  
Snow 0.00 in 0.60 in - ()
Month to date snowfall 8.4 18.2  
Since 1 July snowfall 44.9 84.0  
Snow Depth 0.00 in    
Sea Level Pressure  
Sea Level Pressure 29.72 in    
Wind  
Wind Speed 7 mph (ESE)    
Max Wind Speed 21 mph    
Max Gust Speed 28 mph    
Visibility 7 miles    
Events Rain    
T = Trace of Precipitation, MM = Missing Value Source: NWS Daily Summary

Daily Weather History Graph

Daily Weather History Graph

Search for Another Location

Airport or City:

Trip Planner

Search our weather history database for the weather conditions in past years. The results will help you decide how hot, cold, wet, or windy it might be!

Date:

Astronomy

Feb. 29, 2012 Rise Set
Actual Time 6:56 AM EST 6:10 PM EST
Civil Twilight 6:28 AM EST 6:38 PM EST
Nautical Twilight 5:56 AM EST 7:10 PM EST
Astronomical Twilight 5:23 AM EST 7:43 PM EST
Moon 10:38 AM EST (2/29) 1:03 AM EST (2/29)
Length of Visible Light 12h 09m
Length of Day
11h 13m
Waxing Crescent, 47% of the Moon is Illuminated
Feb 29
Waxing Crescent
Feb 29
First Quarter
Mar 8
Full
Mar 14
Last Quarter
Mar 22
New

Hourly Weather History & Observations

Time (EST) Temp. Windchill Dew Point Humidity Pressure Visibility Wind Dir Wind Speed Gust Speed Precip Events Conditions
12:51 AM 36.0 °F 33.3 °F 16.0 °F 44% 30.23 in 10.0 mi NNE 3.5 mph - N/A   Overcast
1:51 AM 35.1 °F 29.3 °F 21.0 °F 57% 30.16 in 10.0 mi ENE 6.9 mph - N/A   Overcast
2:51 AM 35.1 °F 28.6 °F 21.0 °F 57% 30.10 in 10.0 mi ENE 8.1 mph - N/A   Overcast
3:51 AM 36.0 °F 32.1 °F 23.0 °F 59% 30.06 in 10.0 mi ENE 4.6 mph - N/A   Overcast
4:51 AM 36.0 °F 33.3 °F 28.0 °F 73% 30.08 in 10.0 mi NE 3.5 mph - 0.00 in   Overcast
5:51 AM 34.0 °F 28.0 °F 30.9 °F 89% 30.03 in 8.0 mi ENE 6.9 mph - 0.02 in Rain Light Rain
6:51 AM 35.1 °F 31.0 °F 30.9 °F 85% 29.99 in 5.0 mi East 4.6 mph - 0.07 in Rain Rain
7:51 AM 37.0 °F 31.6 °F 33.1 °F 86% 29.96 in 4.0 mi ESE 6.9 mph - 0.09 in Rain Rain
8:51 AM 37.0 °F 30.4 °F 34.0 °F 89% 29.91 in 6.0 mi East 9.2 mph - 0.05 in Rain Light Rain
9:31 AM 37.4 °F 30.8 °F 35.6 °F 93% 29.85 in 2.0 mi East 9.2 mph - 0.04 in Rain Rain
9:51 AM 37.9 °F 31.5 °F 35.1 °F 89% 29.85 in 2.5 mi ESE 9.2 mph - 0.07 in Rain Light Rain
10:13 AM 39.2 °F 33.0 °F 35.6 °F 87% 29.82 in 4.0 mi ESE 9.2 mph - 0.03 in Rain Light Rain
10:27 AM 39.2 °F 34.2 °F 35.6 °F 87% 29.82 in 5.0 mi ESE 6.9 mph 17.3 mph 0.03 in Rain Light Rain
10:51 AM 39.9 °F 34.5 °F 36.0 °F 86% 29.83 in 5.0 mi ESE 8.1 mph - 0.03 in Rain Light Rain
11:06 AM 39.2 °F 34.2 °F 35.6 °F 87% 29.81 in 5.0 mi ESE 6.9 mph - 0.00 in Rain Light Rain
11:51 AM 41.0 °F 36.4 °F 37.0 °F 86% 29.79 in 8.0 mi Variable 6.9 mph 18.4 mph 0.03 in Rain Light Rain
12:10 PM 41.0 °F 36.4 °F 37.4 °F 87% 29.74 in 10.0 mi SE 6.9 mph - 0.02 in Rain Light Rain
12:34 PM 42.8 °F 40.1 °F 37.4 °F 81% 29.73 in 9.0 mi ESE 4.6 mph - 0.02 in Rain Light Rain
12:51 PM 42.1 °F 37.7 °F 37.9 °F 85% 29.74 in 8.0 mi ESE 6.9 mph - 0.02 in Rain Light Rain
1:27 PM 42.8 °F 40.1 °F 39.2 °F 87% 29.70 in 7.0 mi SSE 4.6 mph - 0.00 in   Overcast
1:51 PM 43.0 °F 40.3 °F 39.9 °F 89% 29.70 in 10.0 mi Variable 4.6 mph - 0.00 in   Overcast
2:51 PM 46.9 °F - 43.0 °F 86% 29.66 in 10.0 mi South 12.7 mph - N/A   Overcast
3:37 PM 50.0 °F - 44.6 °F 82% 29.61 in 10.0 mi South 13.8 mph 23.0 mph N/A   Mostly Cloudy
3:51 PM 50.0 °F - 46.0 °F 86% 29.62 in 10.0 mi South 15.0 mph - N/A   Overcast
4:51 PM 52.0 °F - 46.9 °F 83% 29.60 in 10.0 mi South 9.2 mph - N/A   Scattered Clouds
5:51 PM 50.0 °F - 46.9 °F 89% 29.58 in 8.0 mi SSW 3.5 mph - N/A   Clear
6:36 PM 48.2 °F - 46.4 °F 93% 29.56 in 7.0 mi Calm Calm - N/A   Scattered Clouds
6:48 PM 48.2 °F - 46.4 °F 93% 29.55 in 7.0 mi Calm Calm - N/A   Mostly Cloudy
6:51 PM 48.9 °F - 46.0 °F 90% 29.57 in 7.0 mi Variable 4.6 mph - N/A   Mostly Cloudy
7:51 PM 46.9 °F - 45.0 °F 93% 29.54 in 8.0 mi ESE 3.5 mph - N/A   Scattered Clouds
8:17 PM 46.4 °F 45.2 °F 44.6 °F 93% 29.51 in 9.0 mi SE 3.5 mph - N/A   Mostly Cloudy
8:51 PM 48.0 °F - 46.0 °F 93% 29.52 in 10.0 mi Calm Calm - N/A   Mostly Cloudy
8:59 PM 48.2 °F - 44.6 °F 87% 29.51 in 10.0 mi Variable 6.9 mph - N/A   Mostly Cloudy
9:41 PM 50.0 °F - 46.4 °F 87% 29.52 in 10.0 mi SSW 12.7 mph 24.2 mph 0.01 in Rain Light Rain
9:51 PM 46.0 °F 43.1 °F 43.0 °F 89% 29.55 in 10.0 mi WNW 5.8 mph 27.6 mph 0.01 in   Overcast
10:11 PM 39.2 °F 35.9 °F 39.2 °F 100% 29.54 in 4.0 mi North 4.6 mph - 0.00 in Rain Light Rain
10:15 PM 39.2 °F - 37.4 °F 93% 29.55 in 2.5 mi Calm Calm - 0.00 in Rain Light Rain
10:43 PM 37.4 °F 31.4 °F 37.4 °F 100% 29.52 in 1.5 mi ENE 8.1 mph - 0.00 in   Overcast
10:51 PM 39.0 °F 32.8 °F 37.0 °F 93% 29.54 in 1.2 mi ENE 9.2 mph - 0.00 in   Overcast
11:18 PM 41.0 °F - 39.2 °F 93% 29.52 in 2.5 mi Calm Calm - 0.00 in Rain Light Rain
11:21 PM 41.0 °F 39.0 °F 39.2 °F 93% 29.51 in 3.0 mi SSE 3.5 mph - N/A Rain Light Rain
11:28 PM 41.0 °F - 39.2 °F 93% 29.50 in 3.0 mi Calm Calm - 0.00 in   Mostly Cloudy
11:51 PM 46.0 °F 43.1 °F 43.0 °F 89% 29.50 in 8.0 mi SSE 5.8 mph - 0.00 in   Overcast